Volver al catálogo

FENGYUN 1C DEB

ActivoPO
NORAD 30914·DEBRIS·🇨🇳 China

Lanzado May 10, 1999 desde Taiyuan Satellite Launch Center

Loading…

Próximos Pases (próximas 24 horas)

TLE

ActualizadoSource: Space-Track

Época: Sep 13, 2026, 21:24 UTC

1 30914U 99025AZC 26256.89173680  .00001838  00000-0  28726-2 0  9992
2 30914  99.9840 128.5866 0507809  81.1003 284.7226 13.09606128626760

Sigue FENGYUN 1C DEB en tiempo real con AllMySat

Download on the App Store